• In Deutschland
  • Länderverzeichnis
  • Für 7 Tage
  • Wassertemperatur
  • Satellitenkarten
  • Wetterkarte
  • Widgets
  • user-avatar
    Anmelden

    Stündliche Wetter Cordoba

    Heute, 20 August, Montag

    Zeit Temperatur Niederschläge Wind Luftdruck Luftfeuchtigkeit
    00:00 +4°C° 0 mm 2 m/S 736 mmHg 39%
    01:00 +3°C° 0 mm 2 m/S 736 mmHg 41%
    02:00 +3°C° 0 mm 2 m/S 736 mmHg 42%
    03:00 +2°C° 0 mm 2 m/S 736 mmHg 43%
    04:00 +3°C° 0 mm 1 m/S 736 mmHg 45%
    05:00 +2°C° 0 mm 1 m/S 735 mmHg 46%
    06:00 +3°C° 0 mm 1 m/S 735 mmHg 44%
    07:00 +4°C° 0 mm 1 m/S 736 mmHg 42%
    08:00 +4°C° 0 mm 1 m/S 736 mmHg 40%
    09:00 +6°C° 0 mm 1 m/S 736 mmHg 36%
    10:00 +8°C° 0 mm 1 m/S 736 mmHg 31%
    11:00 +9°C° 0 mm 2 m/S 736 mmHg 27%
    12:00 +10°C° 0 mm 2 m/S 735 mmHg 26%
    13:00 +12°C° 0 mm 2 m/S 734 mmHg 25%
    14:00 +13°C° 0 mm 3 m/S 734 mmHg 23%
    15:00 +12°C° 0 mm 3 m/S 733 mmHg 25%
    16:00 +12°C° 0 mm 3 m/S 733 mmHg 26%
    17:00 +11°C° 0 mm 3 m/S 732 mmHg 28%
    18:00 +10°C° 0 mm 3 m/S 732 mmHg 32%
    19:00 +8°C° 0 mm 2 m/S 733 mmHg 35%
    20:00 +6°C° 0 mm 2 m/S 733 mmHg 39%
    21:00 +6°C° 0 mm 2 m/S 733 mmHg 41%
    22:00 +5°C° 0 mm 2 m/S 733 mmHg 42%
    23:00 +5°C° 0 mm 2 m/S 733 mmHg 43%

    Morgen, 21 August, Dienstag

    Zeit Temperatur Niederschläge Wind Luftdruck Luftfeuchtigkeit
    00:00 +5°C° 0 mm 2 m/S 733 mmHg 44%
    01:00 +5°C° 0 mm 2 m/S 733 mmHg 44%
    02:00 +4°C° 0 mm 2 m/S 732 mmHg 45%
    03:00 +4°C° 0 mm 2 m/S 732 mmHg 46%
    04:00 +4°C° 0 mm 2 m/S 732 mmHg 47%
    05:00 +4°C° 0 mm 2 m/S 731 mmHg 48%
    06:00 +4°C° 0 mm 3 m/S 732 mmHg 47%
    07:00 +4°C° 0 mm 3 m/S 732 mmHg 45%
    08:00 +5°C° 0 mm 3 m/S 733 mmHg 44%
    09:00 +7°C° 0 mm 4 m/S 733 mmHg 39%
    10:00 +11°C° 0 mm 4 m/S 733 mmHg 35%
    11:00 +13°C° 0 mm 5 m/S 733 mmHg 30%
    12:00 +14°C° 0 mm 5 m/S 732 mmHg 29%
    13:00 +15°C° 0 mm 5 m/S 731 mmHg 27%
    14:00 +16°C° 0 mm 5 m/S 730 mmHg 26%
    15:00 +16°C° 0 mm 5 m/S 730 mmHg 27%
    16:00 +15°C° 0 mm 5 m/S 730 mmHg 29%
    17:00 +15°C° 0 mm 5 m/S 729 mmHg 30%
    18:00 +13°C° 0 mm 4 m/S 729 mmHg 35%
    19:00 +11°C° 0 mm 4 m/S 729 mmHg 40%
    20:00 +9°C° 0 mm 3 m/S 730 mmHg 45%
    21:00 +9°C° 0 mm 3 m/S 730 mmHg 46%
    22:00 +8°C° 0 mm 3 m/S 730 mmHg 48%
    23:00 +8°C° 0 mm 3 m/S 730 mmHg 50%

    übermorgen, 22 August, Mittwoch

    Zeit Temperatur Niederschläge Wind Luftdruck Luftfeuchtigkeit
    00:00 +8°C° 0 mm 3 m/S 730 mmHg 51%
    01:00 +7°C° 0 mm 3 m/S 730 mmHg 51%
    02:00 +7°C° 0 mm 3 m/S 729 mmHg 52%
    03:00 +7°C° 0 mm 3 m/S 729 mmHg 52%
    04:00 +7°C° 0 mm 3 m/S 729 mmHg 52%
    05:00 +5°C° 0 mm 3 m/S 728 mmHg 53%
    06:00 +6°C° 0 mm 4 m/S 728 mmHg 50%
    07:00 +7°C° 0 mm 4 m/S 728 mmHg 48%
    08:00 +8°C° 0 mm 4 m/S 728 mmHg 46%
    09:00 +12°C° 0 mm 5 m/S 728 mmHg 40%
    10:00 +14°C° 0 mm 5 m/S 728 mmHg 34%
    11:00 +17°C° 0 mm 6 m/S 727 mmHg 29%
    12:00 +18°C° 0 mm 7 m/S 726 mmHg 27%
    13:00 +20°C° 0 mm 7 m/S 725 mmHg 26%
    14:00 +21°C° 0 mm 7 m/S 724 mmHg 25%
    15:00 +20°C° 0 mm 7 m/S 724 mmHg 27%
    16:00 +20°C° 0 mm 7 m/S 723 mmHg 29%
    17:00 +18°C° 0 mm 7 m/S 722 mmHg 32%
    18:00 +16°C° 0 mm 6 m/S 722 mmHg 36%
    19:00 +15°C° 0 mm 6 m/S 722 mmHg 40%
    20:00 +13°C° 0 mm 5 m/S 722 mmHg 45%
    21:00 +12°C° 0 mm 5 m/S 722 mmHg 46%
    22:00 +12°C° 0 mm 5 m/S 721 mmHg 47%
    23:00 +12°C° 0 mm 5 m/S 721 mmHg 48%

    23 August, Donnerstag

    Zeit Temperatur Niederschläge Wind Luftdruck Luftfeuchtigkeit
    00:00 +10°C° 0 mm 5 m/S 721 mmHg 48%
    01:00 +10°C° 0 mm 5 m/S 720 mmHg 48%
    02:00 +10°C° 0 mm 5 m/S 720 mmHg 48%
    03:00 +10°C° 0 mm 5 m/S 719 mmHg 48%
    04:00 +10°C° 0 mm 5 m/S 719 mmHg 49%
    05:00 +10°C° 0 mm 5 m/S 718 mmHg 49%
    06:00 +11°C° 0 mm 4 m/S 719 mmHg 48%
    07:00 +12°C° 0 mm 4 m/S 719 mmHg 47%
    08:00 +12°C° 0 mm 4 m/S 719 mmHg 47%
    09:00 +14°C° 0 mm 3 m/S 720 mmHg 43%
    10:00 +17°C° 0 mm 3 m/S 720 mmHg 39%
    11:00 +19°C° 0 mm 2 m/S 721 mmHg 34%
    12:00 +20°C° 0 mm 3 m/S 720 mmHg 33%
    13:00 +20°C° 0 mm 3 m/S 720 mmHg 31%
    14:00 +21°C° 0 mm 4 m/S 720 mmHg 29%
    15:00 +20°C° 0 mm 4 m/S 720 mmHg 31%
    16:00 +20°C° 0 mm 4 m/S 720 mmHg 34%
    17:00 +19°C° 0 mm 4 m/S 720 mmHg 36%
    18:00 +17°C° 0 mm 4 m/S 721 mmHg 42%
    19:00 +14°C° 0 mm 4 m/S 722 mmHg 48%
    20:00 +13°C° 0 mm 4 m/S 723 mmHg 53%
    21:00 +12°C° 0 mm 4 m/S 723 mmHg 55%
    22:00 +11°C° 0 mm 4 m/S 724 mmHg 57%
    23:00 +11°C° 0 mm 4 m/S 725 mmHg 59%

    24 August, Freitag

    Zeit Temperatur Niederschläge Wind Luftdruck Luftfeuchtigkeit
    00:00 +9°C° 0 mm 5 m/S 726 mmHg 56%
    01:00 +9°C° 0 mm 6 m/S 727 mmHg 53%
    02:00 +9°C° 0 mm 7 m/S 728 mmHg 51%
    03:00 +8°C° 0 mm 7 m/S 728 mmHg 50%
    04:00 +7°C° 0 mm 6 m/S 729 mmHg 50%
    05:00 +6°C° 0 mm 5 m/S 730 mmHg 50%
    06:00 +5°C° 0 mm 6 m/S 730 mmHg 45%
    07:00 +5°C° 0 mm 6 m/S 731 mmHg 39%
    08:00 +7°C° 0 mm 6 m/S 731 mmHg 34%
    09:00 +9°C° 0 mm 7 m/S 732 mmHg 29%
    10:00 +10°C° 0 mm 7 m/S 732 mmHg 24%
    11:00 +12°C° 0 mm 7 m/S 733 mmHg 19%
    12:00 +14°C° 0 mm 7 m/S 732 mmHg 18%
    13:00 +15°C° 0 mm 7 m/S 732 mmHg 17%
    14:00 +16°C° 0 mm 7 m/S 731 mmHg 16%
    15:00 +16°C° 0 mm 7 m/S 731 mmHg 17%
    16:00 +15°C° 0 mm 6 m/S 732 mmHg 18%
    17:00 +14°C° 0 mm 6 m/S 732 mmHg 19%
    18:00 +13°C° 0 mm 5 m/S 732 mmHg 22%
    19:00 +11°C° 0 mm 4 m/S 733 mmHg 25%
    20:00 +9°C° 0 mm 3 m/S 733 mmHg 29%
    21:00 +8°C° 0 mm 3 m/S 733 mmHg 30%
    22:00 +7°C° 0 mm 2 m/S 734 mmHg 32%
    23:00 +7°C° 0 mm 2 m/S 734 mmHg 33%

    25 August, Samstag

    Zeit Temperatur Niederschläge Wind Luftdruck Luftfeuchtigkeit
    00:00 +6°C° 0 mm 2 m/S 734 mmHg 34%
    01:00 +6°C° 0 mm 2 m/S 733 mmHg 34%
    02:00 +7°C° 0 mm 1 m/S 733 mmHg 35%
    03:00 +6°C° 0 mm 1 m/S 733 mmHg 35%
    04:00 +6°C° 0 mm 1 m/S 732 mmHg 36%
    05:00 +6°C° 0 mm 1 m/S 732 mmHg 36%
    06:00 +7°C° 0 mm 1 m/S 733 mmHg 35%
    07:00 +8°C° 0 mm 1 m/S 733 mmHg 34%
    08:00 +9°C° 0 mm 1 m/S 734 mmHg 34%
    09:00 +10°C° 0 mm 2 m/S 733 mmHg 29%
    10:00 +13°C° 0 mm 3 m/S 733 mmHg 25%
    11:00 +17°C° 0 mm 3 m/S 733 mmHg 20%
    12:00 +18°C° 0 mm 4 m/S 732 mmHg 19%
    13:00 +20°C° 0 mm 4 m/S 731 mmHg 17%
    14:00 +21°C° 0 mm 4 m/S 730 mmHg 16%
    15:00 +21°C° 0 mm 4 m/S 730 mmHg 16%
    16:00 +20°C° 0 mm 4 m/S 729 mmHg 17%
    17:00 +20°C° 0 mm 4 m/S 728 mmHg 18%
    18:00 +18°C° 0 mm 4 m/S 728 mmHg 19%
    19:00 +15°C° 0 mm 4 m/S 728 mmHg 21%
    20:00 +13°C° 0 mm 4 m/S 728 mmHg 22%
    21:00 +13°C° 0 mm 4 m/S 727 mmHg 21%
    22:00 +13°C° 0 mm 4 m/S 727 mmHg 21%
    23:00 +12°C° 0 mm 4 m/S 727 mmHg 21%
    Mehr zeigen